Location: N�rnberg
(49.4471°N, 11.0632°E)
Time: 18:22:17
(UTC+01:00)

Envisat - Pass Details

Date: 18 February 2026
Orbit: 761 x 763 km, 98.4° (Epoch: 6 March)

Event Time Altitude Azimuth Distance (km) Brightness Sun altitude
Rises 02:57:57 0° 15° (NNE) 3,236 6.8 -41.4°
Reaches altitude 10° 03:00:16 10° 17° (NNE) 2,306 5.9 -41.1°
Enters shadow 03:00:40 12° 18° (NNE) 2,152 5.8 -41.1°
